Hauptseite
METAR-TAF:

METAR-TAF

Flughäfen :

Leipzig-Altenburg Airport

Altenburg, Deutschland

Breite: 50-58N, Länge: 012-30E, Höhe: 195 m

Beobachtung

Neuester Wetterbericht von vor 22 Minuten, um 14:50 UTC
Wind 2 kt aus unterschiedlichen Richtungen
Temperatur 8°C
Luftfeuchtigkeit 57%
Luftdruck 1021 hPa
Sichtweite 10 km oder mehr
keine Wolken unter 1500 m und keine Kumulonimbus oder Gewitterwolken

METAR: EDAC 281450Z VRB02KT CAVOK 08/00 Q1021

Zeit: 16:12 (15:12 UTC)

Prognose

Neuester Wetterbericht von vor 1 Stunde und 12 Minuten, um 14:00 UTC
Gültige Prognose vom 28 um 15 UTC bis 28 um 24 UTC
Wind 2 kt aus unterschiedlichen Richtungen
Sichtweite 10 km oder mehr
keine Wolken unter 1500 m und keine Kumulonimbus oder Gewitterwolken

TAF: EDAC 281400Z 2815/2824 VRB02KT CAVOK

Wetterbeobachtungen und Prognosen von mehr als 4000 Flughäfen (METAR und TAF Bericht).

Die verfügbaren Stationen werden durch gelbe und rote Markierungen auf der Karte dargestellt.

Führen Sie die Maus auf sie, um den Namen der Station zu sehen.

Darauf klicken, um die Beobachtung von Wetterbeobachtungen und Prognosen zu sehen.

Um die Karte zu ändern : klicken Sie auf den grünen Tasten mit einem schwarzen Kreuz Zum Vergrößern, auf den grünen Button mit einem Gedankenstrich zu verkleinern, oder auf die grünen Pfeile für benachbarte Karten.


METAR-TAF: